Location: Unspecified
(0.0000°N, 0.0000°E)
Time: 14:23:31
(UTC+00:00)

HULIANWANG DIGUI-86 - Visible Passes

Search period start: 14 November 2025 00:00
Search period end: 24 November 2025 00:00
Orbit: 1139 x 1141 km, 86.5° (Epoch: 12 November)

Date Brightness Start Highest point End Pass type
(mag) Time Alt. Az. Time Alt. Az. Time Alt. Az.
14 Nov ? 03:04:39 10° SE 03:10:00 23° E 03:15:19 10° NE visible
14 Nov ? 04:51:56 10° SSW 04:58:04 33° W 05:04:12 10° NNW visible
15 Nov ? 02:34:39 10° ESE 02:36:29 11° E 02:38:21 10° ENE visible
15 Nov ? 04:17:40 10° S 04:24:35 62° W 04:31:29 10° N visible
16 Nov ? 03:44:05 10° S 03:51:05 74° E 03:58:04 10° N visible
17 Nov ? 03:11:07 10° SSE 03:17:35 40° E 03:24:00 10° NNE visible
17 Nov ? 05:00:56 10° SW 05:05:39 19° W 05:10:23 10° NW visible
18 Nov ? 02:39:05 10° SE 02:44:05 21° E 02:49:04 10° NE visible
18 Nov ? 04:25:50 10° SSW 04:32:10 37° W 04:38:29 10° NNW visible
19 Nov ? 03:51:42 10° S 03:58:40 69° W 04:03:15 23° NNW visible
20 Nov ? 03:18:12 10° S 03:25:10 67° E 03:27:54 39° NNE visible
21 Nov ? 02:45:23 10° SSE 02:51:41 36° E 02:52:59 33° ENE visible
21 Nov ? 04:34:39 10° SW 04:39:45 22° W 04:41:05 20° WNW visible
22 Nov ? 02:13:34 10° SE 02:18:11 19° E 02:18:19 19° E visible
22 Nov ? 03:59:46 10° SSW 04:06:15 41° W 04:06:26 41° W visible
23 Nov ? 03:25:45 10° S 03:31:56 68° SW 03:31:56 68° SW visible
